Camp Point, IL

10:43 AM CST on December 05, 2016 (GMT -0600)
Quincy Regional-Baldwin

Weather History for KUIN - December, 2012

Change the Weather History Date:

Thursday, December 6, 2012

  Actual Average Record
Temperature  
Mean Temperature 44 °F 33 °F  
Max Temperature 51 °F 40 °F 69 °F (1951)
Min Temperature 36 °F 25 °F 0 °F (1976)
Degree Days  
Heating Degree Days 21 32  
Month to date heating degree days 86 188  
Since 1 July heating degree days 1231 1288  
Cooling Degree Days 0 0  
Month to date cooling degree days 0 0  
Year to date cooling degree days 1575 1094  
Moisture  
Dew Point 37 °F    
Average Humidity 77    
Maximum Humidity 92    
Minimum Humidity 61    
Precipitation  
Precipitation 0.06 in 0.08 in 1.44 in (1998)
Month to date precipitation 0.12 0.52  
Year to date precipitation 24.38 35.60  
Sea Level Pressure  
Sea Level Pressure 30.00 in    
Wind  
Wind Speed 7 mph (SSE)    
Max Wind Speed 13 mph    
Max Gust Speed 16 mph    
Visibility 10 miles    
Events Rain    
T = Trace of Precipitation, MM = Missing Value Source: NWS Daily Summary

Daily Weather History Graph

Daily Weather History Graph

Search for Another Location

Airport or City:

Trip Planner

Search our weather history database for the weather conditions in past years. The results will help you decide how hot, cold, wet, or windy it might be!

Date:

Astronomy

Dec. 06, 2012 Rise Set
Actual Time 7:12 AM CST 4:39 PM CST
Civil Twilight 6:42 AM CST 5:09 PM CST
Nautical Twilight 6:08 AM CST 5:43 PM CST
Astronomical Twilight 5:35 AM CST 6:16 PM CST
Moon No Moon Rise 12:05 PM CST (12/6)
Length of Visible Light 10h 27m
Length of Day
9h 27m
Waning Gibbous, 49% of the Moon is Illuminated
Dec 6
Waning Gibbous
Dec 13
New
Dec 19
First Quarter
Dec 28
Full
Jan 4
Last Quarter

Hourly Weather History & Observations

Time (CST) Temp. Windchill Dew Point Humidity Pressure Visibility Wind Dir Wind Speed Gust Speed Precip Events Conditions
12:54 AM 41.0 °F 34.7 °F 34.0 °F 76% 30.11 in 10.0 mi SSE 10.4 mph - N/A   Clear
1:54 AM 37.9 °F 32.7 °F 33.1 °F 83% 30.10 in 10.0 mi SSE 6.9 mph - N/A   Clear
2:54 AM 37.0 °F 31.0 °F 33.1 °F 86% 30.09 in 10.0 mi SSE 8.1 mph - N/A   Clear
3:54 AM 37.0 °F 31.0 °F 32.0 °F 82% 30.08 in 10.0 mi SSE 8.1 mph - N/A   Clear
4:54 AM 37.9 °F 31.5 °F 33.1 °F 83% 30.06 in 10.0 mi SSE 9.2 mph - N/A   Clear
5:54 AM 37.9 °F 30.9 °F 33.1 °F 83% 30.06 in 10.0 mi SSE 10.4 mph - N/A   Clear
6:54 AM 39.0 °F 32.8 °F 33.1 °F 79% 30.06 in 10.0 mi SSE 9.2 mph - N/A   Clear
7:54 AM 39.0 °F 32.8 °F 34.0 °F 82% 30.04 in 9.0 mi SSE 9.2 mph - N/A   Clear
8:54 AM 41.0 °F 34.3 °F 34.0 °F 76% 30.04 in 10.0 mi SSE 11.5 mph - N/A   Clear
9:54 AM 43.0 °F 38.8 °F 34.0 °F 71% 30.03 in 10.0 mi South 6.9 mph - N/A   Partly Cloudy
10:54 AM 46.0 °F 41.9 °F 35.1 °F 66% 30.02 in 10.0 mi South 8.1 mph - N/A   Clear
11:54 AM 48.0 °F - 36.0 °F 63% 29.99 in 10.0 mi South 5.8 mph - N/A   Partly Cloudy
12:54 PM 48.9 °F - 37.0 °F 64% 29.95 in 10.0 mi South 6.9 mph - N/A   Clear
1:54 PM 50.0 °F - 37.9 °F 63% 29.93 in 10.0 mi South 6.9 mph - N/A   Clear
2:54 PM 51.1 °F - 39.0 °F 63% 29.93 in 10.0 mi South 5.8 mph - N/A   Clear
3:54 PM 51.1 °F - 39.0 °F 63% 29.93 in 10.0 mi SSE 4.6 mph - N/A   Clear
4:54 PM 46.9 °F - 39.0 °F 74% 29.92 in 10.0 mi SSE 5.8 mph - N/A   Clear
5:54 PM 48.9 °F - 37.9 °F 66% 29.93 in 10.0 mi SSE 3.5 mph - N/A   Overcast
6:54 PM 48.0 °F - 39.0 °F 71% 29.94 in 10.0 mi South 5.8 mph - N/A   Overcast
7:54 PM 48.0 °F - 37.9 °F 68% 29.94 in 10.0 mi South 5.8 mph - N/A   Overcast
8:54 PM 46.9 °F - 39.9 °F 77% 29.94 in 10.0 mi South 5.8 mph - 0.01 in Rain Light Rain
9:54 PM 45.0 °F 43.5 °F 42.1 °F 90% 29.94 in 5.0 mi ENE 3.5 mph - 0.05 in Rain Light Rain
10:54 PM 45.0 °F 43.5 °F 42.1 °F 90% 29.93 in 8.0 mi SSE 3.5 mph - 0.00 in   Mostly Cloudy
11:54 PM 44.1 °F 41.5 °F 41.0 °F 89% 29.94 in 5.0 mi North 4.6 mph - N/A   Mostly Cloudy